User: anonymous   Login
Location: Unspecified
(0.0000°N, 0.0000°E)
Time: 17:01:55
(UTC+00:00)
Language:

NANOSAT 1B - Orbit

View from above orbital plane
View from above orbital plane
View from above satellite
View from above satellite

Ground track
Ground track

The orbit data is extracted from the following two-line orbital elements,

1 35685U 09041E   18174.91387120 +.00000093 +00000-0 +18218-4 0  9999
2 35685 098.2779 167.4615 0057649 290.4574 069.0455 14.84099843481342
Epoch (UTC): 23 June 2018 21:55:58
Eccentricity: 0.0057649
inclination: 98.2779°
perigee height: 576 km
apogee height: 657 km
right ascension of ascending node: 167.4615°
argument of perigee: 290.4574°
revolutions per day: 14.84099843
mean anomaly at epoch: 69.0455°
orbit number at epoch: 48134

The dashed part of the orbit path shows where the satellite is in the earth's shadow,  

DLR